Showing default

HULIANWANG DIGUI-19, 62979

Orbit data source: Space-Track

HULIANWANG DIGUI-19, 62979 is a payload satellite owned by Zhongguo Xingwang (CN) in LEO that was launched on Tue, 11 Feb 2025 UTC via a CHANG ZHENG 8A launch vehicle from the Wenchang Satellite Launch Center (WSC). Payload-class satellites include a variety of spacecraft equipped with specific instruments for various scientific and technological missions. These include communications satellites like Starlink; space stations such as the ISS; scientific satellites like the Hubble; Earth observation satellites from companies like Planet Labs, Umbra, and HawkEye 360; GPS; miniature CubeSats for education and research; and military/defense satellites.

Loading next visibility...
Identifier
62979, 2025-030J
Orbit
LEO
Last TLE update
19 hours ago
Origin
Manufacturer
CAST
Mission
Operational Civil Communications
Bus & Motor
HWHD, Unknown motor
Mass
~800 kg wet, ~800 kg dry
Launch date (UTC)
2025-02-11 (3 months ago)
Launch vehicle
CHANG ZHENG 8A
Launch site
Wenchang Satellite Launch Center (WSC)
Object type
Payload
Rocket body
Debris
Shape & HBR
Box + 2 Pan, 10 m
Radar Cross Section
5.935 m², Large (>1 m²)

Expand to show TLE details & history

TLE from 19 hours ago
0 HULIANWANG DIGUI-19
1 62979U 25030J   25128.47801838 -.00000068  00000-0  94641-4 0  9993
2 62979  50.0054 248.7930 0000497 139.4877 220.6044 13.54268112 12005
Epoch: 2025-05-08T11:28Z
Definitive object data (Epoch: 2025-05-08T11:28:20.788Z)
Latitude
0.00007°
Longitude
-149.8415°
Altitude
1,057.39 km
Speed
7.324 km/s
True Right ascension
16h 35m 10s
True Declination
0° 00' 00"
Sunlit
Object was in full shadow at TLE epoch
Visualization TLE readout
Latitude
-11.82942°
Longitude
-162.93822°
Altitude
1,059.744 km
Speed
7.322 km/s
Apparent Right ascension
17h 01m 08s
Apparent Declination
-64° 56' 29"
Sunlit
Object is in full shadow
Visualization observer readout
Local Sidereal Time
15:01:35
Azimuth
167.219° S
Elevation
-17.435°
Doppler factor
1
Orbital elements
Apogee altitude
1,057.679 km
Perigee altitude
1,056.94 km
Semi-major axis
7,435.447 km
Eccentricity
0.0000497
Inclination
50.0054°
RAAN
248.793°
Arg. of periapsis
139.4877°
True anomaly
220.60069°
Mean anomaly
220.6044°
Eccentric anomaly
220.60255°
Mean motion
3.38519 °/min
BSTAR
0.000094641
Orbital period
106.35 mins
Loading maneuver chart data...
Loading SW <> Apogee altitude chart data...
Loading historical data...
Loading historical data...
Loading historical data...
Loading historical data...
Loading historical data...
Loading historical data...
Loading historical data...

HULIANWANG DIGUI-19 Visibility forecast

Observer location: undefined°, undefined°

Span
Click to sort rows by Start time (UTC) header in descending order
Start Az.
Max El. time (UTC)
Max El. Az.
Max El.
End time (UTC)
End Az.
8 mins2025-05-09 08:50:40.865Z162.986° S2025-05-09 08:54:40.865Z126.711° SE16.531°2025-05-09 08:58:40.865Z89.283° E
12 mins2025-05-09 10:39:40.865Z222.695° SW2025-05-09 10:45:40.865Z124.737° SE43.494°2025-05-09 10:51:40.865Z59.17° ENE
11 mins2025-05-09 12:32:40.865Z276.421° WNW2025-05-09 12:37:40.865Z350.293° N35.539°2025-05-09 12:43:40.865Z53.392° ENE
10 mins2025-05-09 14:25:40.865Z308.224° NW2025-05-09 14:29:40.865Z356.689° N30.369°2025-05-09 14:35:40.865Z67.263° ENE
11 mins2025-05-09 16:17:40.865Z310.841° NW2025-05-09 16:22:40.865Z28.503° NE41.289°2025-05-09 16:28:40.865Z105.812° ESE
11 mins2025-05-09 18:08:40.865Z290.933° WNW2025-05-09 18:13:40.865Z233.517° WSW34.575°2025-05-09 18:19:40.865Z158.772° S
|